Volver al catálogo

TIROS 3

ActivoMeteoLEO
NORAD 162·PAYLOAD·🇺🇸 United States

Lanzado Jul 12, 1961 desde Cape Canaveral Space Force Station

Loading…

Próximos Pases (próximas 24 horas)

TLE

ActualizadoSource: Space-Track

Época: Sep 14, 2026, 13:23 UTC

1 00162U 61017A   26257.55793045 -.00000030  00000-0  37598-4 0  9994
2 00162  47.9003 322.4327 0043725 350.8372   9.1720 14.45418603404706

Sigue TIROS 3 en tiempo real con AllMySat

Download on the App Store